Location: Bo?a Wola
(50.4192°N, 19.7966°E)
Time: 21:51:24
(UTC+00:00)

Cosmos 1455 Rocket - Pass Details

Date: 26 September 2024
Orbit: 601 x 623 km, 82.5° (Epoch: 13 October)

Event Time Altitude Azimuth Distance (km) Brightness Sun altitude
Exits shadow 00:48:15 11° 344° (NNW) 1,925 5.9 -33.1°
Drops below altitude 10° 00:48:25 10° 346° (NNW) 1,980 6.0 -33.1°
Sets 00:51:04 0° 1° (N) 2,894 7.1 -32.8°
